Location: Quesnel
(52.9830°N, 122.4830°W)
Time: 14:47:55
(UTC-07:00)

ISS - All Passes

Search period start: 25 April 2015 00:00
Search period end: 05 May 2015 00:00
Orbit: 395 x 402 km, 51.6° (Epoch: 25 April)

Date Brightness Start Highest point End Pass type
(mag) Time Alt. Az. Time Alt. Az. Time Alt. Az.
25 Apr - 13:31:47 10° SSW 13:34:34 26° SSE 13:37:23 10° E daylight
25 Apr - 15:07:23 10° WSW 15:10:37 63° S 15:13:52 10° E daylight
25 Apr - 16:43:37 10° W 16:46:52 61° S 16:50:06 10° ESE daylight
25 Apr - 18:20:09 10° W 18:22:53 24° SSW 18:25:34 10° SSE daylight
26 Apr - 12:38:23 10° S 12:40:40 18° SE 12:42:59 10° E daylight
26 Apr - 14:13:22 10° WSW 14:16:34 52° SSE 14:19:46 10° E daylight
26 Apr - 15:49:32 10° W 15:52:47 69° S 15:56:03 10° E daylight
26 Apr - 17:25:54 10° W 17:28:55 34° SSW 17:31:55 10° SE daylight
27 Apr - 11:45:38 10° SSE 11:46:46 12° SE 11:47:59 10° ESE daylight
27 Apr - 13:19:26 10° SW 13:22:30 39° SSE 13:25:35 10° E daylight
27 Apr - 14:55:24 10° W 14:58:40 71° S 15:01:55 10° E daylight
27 Apr - 16:31:42 10° W 16:34:52 47° SSW 16:38:01 10° ESE daylight
27 Apr - 18:08:41 10° WSW 18:10:42 15° SW 18:12:40 10° S daylight
28 Apr - 12:25:37 10° SSW 12:28:27 28° SSE 12:31:18 10° E daylight
28 Apr - 14:01:15 10° WSW 14:04:29 65° S 14:07:45 10° E daylight
28 Apr - 15:37:30 10° W 15:40:44 59° SSW 15:43:57 10° ESE daylight
28 Apr - 17:14:04 10° W 17:16:43 23° SSW 17:19:20 10° SSE daylight
29 Apr - 11:32:02 10° SSW 11:34:23 19° SSE 11:36:48 10° E daylight
29 Apr - 13:07:07 10° WSW 13:10:18 54° SSE 13:13:30 10° E daylight
29 Apr - 14:43:16 10° W 14:46:32 68° S 14:49:47 10° ESE daylight
29 Apr - 16:19:39 10° W 16:22:38 33° SSW 16:25:36 10° SE daylight
30 Apr - 10:38:59 10° SSE 10:40:21 12° SE 10:41:49 10° ESE daylight
30 Apr - 12:13:01 10° SW 12:16:06 40° SSE 12:19:12 10° E daylight
30 Apr - 13:49:01 10° W 13:52:16 71° S 13:55:31 10° E daylight
30 Apr - 15:25:19 10° W 15:28:27 45° SSW 15:31:35 10° SE daylight
30 Apr - 17:02:22 10° WSW 17:04:15 14° SW 17:06:05 10° S daylight
01 May - 11:19:03 10° SW 11:21:54 29° SSE 11:24:48 10° E daylight
01 May - 12:54:44 10° WSW 12:57:58 66° S 13:01:13 10° E daylight
01 May - 14:30:59 10° W 14:34:11 58° SSW 14:37:24 10° ESE daylight
01 May - 16:07:33 10° W 16:10:09 22° SSW 16:12:42 10° SSE daylight
02 May - 10:25:17 10° SSW 10:27:44 20° SSE 10:30:12 10° E daylight
02 May - 12:00:27 10° WSW 12:03:38 55° SSE 12:06:51 10° E daylight
02 May - 13:36:37 10° W 13:39:52 67° S 13:43:06 10° ESE daylight
02 May - 15:13:00 10° W 15:15:56 31° SSW 15:18:52 10° SE daylight
03 May - 09:32:00 10° S 09:33:33 13° SE 09:35:10 10° ESE daylight
03 May - 11:06:13 10° SW 11:09:18 42° SSE 11:12:25 10° E daylight
03 May - 12:42:13 10° W 12:45:28 71° S 12:48:43 10° E daylight
03 May - 14:18:31 10° W 14:21:38 43° SSW 14:24:44 10° SE daylight
03 May - 15:55:41 10° WSW 15:57:24 14° SW 15:59:04 10° S daylight
04 May - 10:12:05 10° SW 10:14:58 30° SSE 10:17:53 10° E daylight
04 May - 11:47:48 10° WSW 11:51:02 67° S 11:54:17 10° E daylight
04 May - 13:24:03 10° W 13:27:14 56° SSW 13:30:27 10° ESE daylight
04 May - 15:00:40 10° W 15:03:10 21° SSW 15:05:40 10° SSE daylight
